{"data":{"norad_id":55480,"intl_designator":"2023-015AH","name":"STARLINK-5690","alt_names":[],"object_type":"PAYLOAD","status":"ACTIVE","operator":null,"country":"US","launch_date":"2023-02-02","launch_site_code":"AFETR","launch_vehicle":null,"mission":null,"orbit_class":"UNKNOWN","rcs_meters":null,"size_class":null,"mass_kg":null,"dimensions":null,"purposes":["comms"],"wikipedia_slug":null,"has_3d_model":false,"image_url":null,"decayed_at":null,"tle_current":{"epoch":"2026-05-25T01:01:04.109088Z","epoch_age_seconds":78356,"freshness":"FRESH","line1":"1 55480U 23015AH  26145.04240867 -.00000600  00000+0 -12301-4 0  9990","line2":"2 55480  43.0009 268.3473 0001280 271.4776  88.5929 15.27573690182274","mean_motion":15.2757369,"eccentricity":0.000128,"inclination_deg":43.0009,"raan_deg":268.3473,"arg_perigee_deg":271.4776,"mean_anomaly_deg":88.5929,"bstar":-1.2301e-5,"rev_number":18227,"period_min":94.26713810448,"perigee_km":482.18975627592,"apogee_km":483.94622475349,"semimajor_km":6861.2049905147,"source":"CELESTRAK","updated_at":"2026-05-25T13:38:17.808955Z"}}}